OIAH  Gachsaran Airport

Add Bookmark

Iran

Status
Operational
Latitude Longitude
30° 20' 15" N 50° 49' 40" E
30.337601 50.827999
Local (DST + 5) UTC (GMT + 4)
Sep 30, 2014 09:21 Sep 30, 2014 17:51
Sunrise-Sunset Local UTC
Begin Civil Twilight 05:34 02:04
Sunrise 05:58 02:28
Sunset 05:54 14:24
End Civil Twilight 06:18 14:48

Current Weather

METAR Observed VFR
OIAH 301700Z 00000KT CAVOK 29/06 Q1016 Tue, Sep 30, 2014 @ 17:00 UTC
(51 Minutes ago)
Visual Flight Rules
Wind Visibility Clouds Conditions
Calm 10 km or more
  • Clear skies
  • No significant weather
Temperatures Readings Precipitation
Current Temp 29°C (84°F)
Dewpoint 6°C (43°F)
Humidity 23%
Altimeter 30"Hg
Sea Level Pressure 1016mb
Field Elevation 2421.26'
None Recorded

Additional weather within a 92.6km radius of OIAH

Map ICAO Location
OISY 79.6km E (059°)

24 Hour Weather History

Loading
-

24 Hour Weather Graphs

Loading
-

CheckWX.com is intended as a tool to help pilots better visualize weather data. It is not intended as a substitute for an official weather briefing obtained from a Flight Service Station. CheckWX.com does not meet the FAA requirements for an official pre-flight weather briefing. Therefore, it's important that pilots still call and obtain an official FSS pre-flight weather briefing.